Barbara Foss — WYL4318 — position and weather

sailwx.info

Track history (hours):
 
Tides and Currents Weather Stations Pressure Air Temp Water Temp Dewpoint Dewpoint Depression Visibility Wind Speed Wind Dir Waves Ship Positions

Barbara Foss

Owner: Foss International, Inc, SEATTLE, WA. More information available from US FCC via Universal Licensing System and Coast Guard Vessel Documentation Center.

Last reported at 2014-Oct-30 12:25 UTC. Time now 2014-Nov-01 04:05 UTC.
Position N 58°16' W 135°35'.

Length 39 m; draft 5.5 m.

Type: Tow > 200 m length. MMSI: 366932130.

Date/timePositionNaut miles runAvg speedWind from/ knotsBaromVisibWave heightAir tempDewpointWater temp
2014-Oct-30 12:25N 58°16' W 135°35'7 8.3
2014-Oct-30 11:33N 58°18' W 135°48'9 9.2
2014-Oct-30 10:33N 58°15' W 136°04'8 8.0
2014-Oct-30 09:33N 58°17' W 136°19'64 5.5
2014-Oct-29 22:00N 58°42' W 138°12'341 7.1 140 / 331003.0 5.4 2.5 9.4
2014-Oct-27 22:00N 60°48' W 148°42'   999 / 11014.4 5.4 3.3-4.0
2014-Oct-25 00:00N 59°00' W 140°18'131 7.0 180 / 131007.9 5.4 0.510.6
2014-Oct-24 05:20N 58°17' W 136°20'7 8.4
2014-Oct-24 04:33N 58°15' W 136°08'8 7.9
2014-Oct-24 03:34N 58°17' W 135°53'8 7.9
2014-Oct-24 02:31N 58°17' W 135°38'292 6.8
2014-Oct-22 07:20N 54°18' W 130°35'7 9.3
2014-Oct-22 06:33N 54°13' W 130°25'5 4.7
2014-Oct-22 05:33N 54°18' W 130°22'1 0.6
2014-Oct-22 04:33N 54°18' W 130°21'0 0.0
2014-Oct-22 03:33N 54°18' W 130°21'0 0.0
2014-Oct-22 02:33N 54°18' W 130°21'0 0.0
2014-Oct-22 01:33N 54°18' W 130°21'0 0.0
2014-Oct-22 00:33N 54°18' W 130°21'0 0.0
2014-Oct-21 23:33N 54°18' W 130°21'0 0.0
2014-Oct-21 22:33N 54°18' W 130°21'0 0.0
2014-Oct-21 21:33N 54°18' W 130°21'0 0.0
2014-Oct-21 20:33N 54°18' W 130°21'0 0.0
2014-Oct-21 19:33N 54°18' W 130°21'0 0.0
2014-Oct-21 18:33N 54°18' W 130°21'0 0.0
2014-Oct-21 17:33N 54°18' W 130°21'0 0.0
2014-Oct-21 14:03N 54°18' W 130°21'0 0.0
2014-Oct-21 13:33N 54°18' W 130°21'0 0.0
2014-Oct-21 12:33N 54°18' W 130°21'0 0.0
2014-Oct-21 11:33N 54°18' W 130°21'0 0.0
2014-Oct-21 10:33N 54°18' W 130°21'0 0.0
2014-Oct-21 09:33N 54°18' W 130°21'0 0.0
2014-Oct-21 08:33N 54°18' W 130°21'0 0.0
2014-Oct-21 07:30N 54°18' W 130°21'0 0.0
2014-Oct-21 06:33N 54°18' W 130°21'0 0.4
2014-Oct-21 05:33N 54°18' W 130°21'1 1.2
2014-Oct-21 04:31N 54°19' W 130°19'0 0.0
2014-Oct-21 03:31N 54°19' W 130°19'0 0.0
2014-Oct-21 02:31N 54°19' W 130°19'0 0.0
2014-Oct-21 01:31N 54°19' W 130°19'0 0.0
2014-Oct-21 00:28N 54°19' W 130°19'0 0.0
2014-Oct-20 23:31N 54°19' W 130°19'2 1.6
2014-Oct-20 22:31N 54°18' W 130°21'0 0.0
2014-Oct-20 21:31N 54°18' W 130°21'0 0.0
2014-Oct-20 20:31N 54°18' W 130°21'0 0.0
2014-Oct-20 19:31N 54°18' W 130°21'0 0.0
2014-Oct-20 18:31N 54°18' W 130°21'0 0.0
2014-Oct-20 17:31N 54°18' W 130°21'0 0.0
2014-Oct-20 16:31N 54°18' W 130°21'  
Track history (hours):
 
Tides and Currents Weather Stations Pressure Air Temp Water Temp Dewpoint Dewpoint Depression Visibility Wind Speed Wind Dir Waves Ship Positions

Barbara Foss

Owner: Foss International, Inc, SEATTLE, WA. More information available from US FCC via Universal Licensing System and Coast Guard Vessel Documentation Center.

Last reported at 2014-Oct-30 12:25 UTC. Time now 2014-Nov-01 04:05 UTC.
Position N 58°16' W 135°35'.

Length 39 m; draft 5.5 m.

Type: Tow > 200 m length. MMSI: 366932130.

Date/timePositionNaut miles runAvg speedWind from/ knotsBaromVisibWave heightAir tempDewpointWater temp
2014-Oct-30 12:25N 58°16' W 135°35'7 8.3
2014-Oct-30 11:33N 58°18' W 135°48'9 9.2
2014-Oct-30 10:33N 58°15' W 136°04'8 8.0
2014-Oct-30 09:33N 58°17' W 136°19'64 5.5
2014-Oct-29 22:00N 58°42' W 138°12'341 7.1 140 / 331003.0 5.4 2.5 9.4
2014-Oct-27 22:00N 60°48' W 148°42'   999 / 11014.4 5.4 3.3-4.0
2014-Oct-25 00:00N 59°00' W 140°18'131 7.0 180 / 131007.9 5.4 0.510.6
2014-Oct-24 05:20N 58°17' W 136°20'7 8.4
2014-Oct-24 04:33N 58°15' W 136°08'8 7.9
2014-Oct-24 03:34N 58°17' W 135°53'8 7.9
2014-Oct-24 02:31N 58°17' W 135°38'292 6.8
2014-Oct-22 07:20N 54°18' W 130°35'7 9.3
2014-Oct-22 06:33N 54°13' W 130°25'5 4.7
2014-Oct-22 05:33N 54°18' W 130°22'1 0.6
2014-Oct-22 04:33N 54°18' W 130°21'0 0.0
2014-Oct-22 03:33N 54°18' W 130°21'0 0.0
2014-Oct-22 02:33N 54°18' W 130°21'0 0.0
2014-Oct-22 01:33N 54°18' W 130°21'0 0.0
2014-Oct-22 00:33N 54°18' W 130°21'0 0.0
2014-Oct-21 23:33N 54°18' W 130°21'0 0.0
2014-Oct-21 22:33N 54°18' W 130°21'0 0.0
2014-Oct-21 21:33N 54°18' W 130°21'0 0.0
2014-Oct-21 20:33N 54°18' W 130°21'0 0.0
2014-Oct-21 19:33N 54°18' W 130°21'0 0.0
2014-Oct-21 18:33N 54°18' W 130°21'0 0.0
2014-Oct-21 17:33N 54°18' W 130°21'0 0.0
2014-Oct-21 14:03N 54°18' W 130°21'0 0.0
2014-Oct-21 13:33N 54°18' W 130°21'0 0.0
2014-Oct-21 12:33N 54°18' W 130°21'0 0.0
2014-Oct-21 11:33N 54°18' W 130°21'0 0.0
2014-Oct-21 10:33N 54°18' W 130°21'0 0.0
2014-Oct-21 09:33N 54°18' W 130°21'0 0.0
2014-Oct-21 08:33N 54°18' W 130°21'0 0.0
2014-Oct-21 07:30N 54°18' W 130°21'0 0.0
2014-Oct-21 06:33N 54°18' W 130°21'0 0.4
2014-Oct-21 05:33N 54°18' W 130°21'1 1.2
2014-Oct-21 04:31N 54°19' W 130°19'0 0.0
2014-Oct-21 03:31N 54°19' W 130°19'0 0.0
2014-Oct-21 02:31N 54°19' W 130°19'0 0.0
2014-Oct-21 01:31N 54°19' W 130°19'0 0.0
2014-Oct-21 00:28N 54°19' W 130°19'0 0.0
2014-Oct-20 23:31N 54°19' W 130°19'2 1.6
2014-Oct-20 22:31N 54°18' W 130°21'0 0.0
2014-Oct-20 21:31N 54°18' W 130°21'0 0.0
2014-Oct-20 20:31N 54°18' W 130°21'0 0.0
2014-Oct-20 19:31N 54°18' W 130°21'0 0.0
2014-Oct-20 18:31N 54°18' W 130°21'0 0.0
2014-Oct-20 17:31N 54°18' W 130°21'0 0.0
2014-Oct-20 16:31N 54°18' W 130°21'  

Dump ship's entire track history